QPF
0.04 0.17 0.04 0.02 0.00 0.00 0.00 0.00 0.00 0.00 0.00 0.00 0.00 0.00 0.00 0.00 0.00 0.00 0.00 0.00 0.00 0.00 0.00 0.00 0.00 0.00 0.00 0.00 0.00 0.00 0.00 0.00 0.00 0.00 0.00 0.00 0.00 0.00 0.00 0.00 0.00 0.00 0.01
0.06 0.09 0.24 0.10 0.00 0.00 0.00 0.00 0.00 0.00 0.00 0.00 0.00 0.00 0.00 0.00 0.00 0.00 0.00 0.00 0.00 0.00 0.00 0.00 0.00 0.00 0.00 0.00 0.00 0.00 0.00 0.00 0.00 0.00 0.00 0.00 0.00 0.00 0.00 0.00 0.00 0.00 0.01
0.00 0.01 0.12 0.33 0.06 0.00 0.00 0.00 0.00 0.00 0.00 0.00 0.00 0.00 0.00 0.00 0.00 0.00 0.00 0.00 0.00 0.00 0.00 0.00 0.00 0.00 0.00 0.00 0.00 0.00 0.00 0.00 0.00 0.00 0.00 0.00 0.00 0.00 0.00 0.00 0.00 0.00 0.01
0.01 0.00 0.01 0.12 0.19 0.06 0.00 0.00 0.00 0.00 0.00 0.00 0.00 0.00 0.00 0.00 0.00 0.00 0.00 0.00 0.00 0.00 0.00 0.00 0.00 0.00 0.00 0.00 0.00 0.00 0.00 0.00 0.00 0.00 0.00 0.00 0.00 0.00 0.00 0.00 0.00 0.00 0.00
0.00 0.00 0.00 0.02 0.16 0.15 0.01 0.00 0.00 0.00 0.00 0.00 0.00 0.00 0.00 0.00 0.00 0.00 0.00 0.00 0.00 0.00 0.00 0.00 0.00 0.00 0.00 0.00 0.00 0.00 0.00 0.00 0.00 0.00 0.00 0.00 0.00 0.00 0.00 0.00 0.00 0.00 0.00
0.00 0.00 0.03 0.04 0.12 0.25 0.07 0.00 0.00 0.00 0.00 0.00 0.00 0.00 0.00 0.00 0.00 0.00 0.00 0.00 0.00 0.00 0.00 0.00 0.00 0.00 0.00 0.00 0.00 0.00 0.00 0.00 0.00 0.00 0.00 0.00 0.00 0.00 0.00 0.00 0.00 0.00 0.00
0.03 0.02 0.14 0.28 0.39 0.26 0.25 0.12 0.01 0.00 0.00 0.00 0.00 0.00 0.00 0.00 0.00 0.00 0.00 0.00 0.00 0.00 0.00 0.00 0.00 0.00 0.00 0.00 0.00 0.00 0.00 0.00 0.00 0.00 0.00 0.00 0.00 0.00 0.00 0.00 0.00 0.00 0.00
0.35 0.22 0.32 0.42 0.35 0.11 0.04 0.15 0.07 0.00 0.00 0.00 0.00 0.00 0.00 0.00 0.00 0.00 0.00 0.00 0.00 0.00 0.00 0.00 0.00 0.00 0.00 0.00 0.00 0.00 0.00 0.00 0.00 0.00 0.00 0.00 0.00 0.00 0.00 0.00 0.00 0.00 0.00
0.38 0.13 0.03 0.13 0.18 0.11 0.07 0.09 0.13 0.01 0.00 0.00 0.00 0.00 0.00 0.00 0.00 0.00 0.00 0.00 0.00 0.00 0.00 0.00 0.00 0.00 0.00 0.00 0.00 0.00 0.00 0.00 0.00 0.00 0.00 0.00 0.00 0.00 0.00 0.00 0.00 0.00 0.00
0.36 0.17 0.05 0.06 0.07 0.04 0.02 0.11 0.11 0.01 0.00 0.00 0.00 0.00 0.00 0.00 0.00 0.00 0.00 0.00 0.00 0.00 0.00 0.00 0.00 0.00 0.00 0.00 0.00 0.00 0.00 0.00 0.00 0.00 0.00 0.00 0.00 0.00 0.00 0.00 0.00 0.00 0.00
0.18 0.14 0.12 0.10 0.07 0.06 0.03 0.02 0.05 0.01 0.00 0.00 0.00 0.00 0.00 0.00 0.00 0.00 0.00 0.00 0.00 0.00 0.00 0.00 0.00 0.00 0.00 0.00 0.00 0.00 0.00 0.00 0.00 0.00 0.00 0.00 0.00 0.00 0.00 0.00 0.00 0.00 0.00
0.16 0.17 0.23 0.17 0.14 0.04 0.00 0.01 0.01 0.00 0.00 0.00 0.00 0.00 0.00 0.00 0.00 0.00 0.00 0.00 0.00 0.00 0.00 0.00 0.00 0.00 0.00 0.00 0.00 0.00 0.00 0.00 0.00 0.00 0.00 0.00 0.00 0.00 0.00 0.00 0.00 0.00 0.00
0.03 0.07 0.12 0.17 0.07 0.02 0.00 0.00 0.00 0.00 0.00 0.00 0.00 0.00 0.00 0.00 0.00 0.00 0.00 0.00 0.00 0.00 0.00 0.00 0.00 0.00 0.00 0.00 0.00 0.00 0.00 0.00 0.00 0.00 0.00 0.00 0.00 0.00 0.00 0.00 0.00 0.00 0.00
0.03 0.02 0.02 0.04 0.07 0.02 0.01 0.00 0.00 0.00 0.00 0.00 0.00 0.00 0.00 0.00 0.00 0.00 0.00 0.00 0.00 0.00 0.00 0.00 0.00 0.00 0.00 0.00 0.00 0.00 0.00 0.00 0.00 0.00 0.00 0.00 0.00 0.00 0.00 0.00 0.00 0.00 0.00
0.04 0.01 0.00 0.00 0.01 0.01 0.00 0.00 0.00 0.00 0.00 0.00 0.00 0.00 0.00 0.00 0.00 0.00 0.00 0.00 0.00 0.00 0.00 0.00 0.00 0.00 0.00 0.00 0.00 0.00 0.00 0.00 0.00 0.00 0.00 0.00 0.00 0.00 0.00 0.00 0.00 0.00 0.00
0.01 0.00 0.01 0.00 0.00 0.00 0.00 0.00 0.00 0.00 0.00 0.00 0.00 0.00 0.00 0.00 0.00 0.00 0.00 0.00 0.00 0.00 0.00 0.00 0.00 0.00 0.00 0.00 0.00 0.00 0.00 0.00 0.00 0.00 0.00 0.00 0.00 0.00 0.00 0.00 0.00 0.00 0.00
0.00 0.00 0.01 0.00 0.00 0.00 0.00 0.00 0.00 0.00 0.00 0.00 0.00 0.00 0.00 0.00 0.00 0.00 0.00 0.05 0.02 0.00 0.00 0.00 0.00 0.00 0.00 0.00 0.00 0.00 0.00 0.00 0.00 0.00 0.00 0.00 0.00 0.00 0.00 0.00 0.00 0.00 0.00
0.00 0.00 0.00 0.00 0.00 0.00 0.00 0.00 0.00 0.00 0.00 0.00 0.00 0.00 0.00 0.00 0.00 0.00 0.02 0.06 0.08 0.03 0.00 0.00 0.00 0.00 0.00 0.00 0.00 0.00 0.00 0.00 0.00 0.00 0.00 0.00 0.00 0.00 0.00 0.00 0.00 0.00 0.00
0.00 0.00 0.00 0.00 0.00 0.00 0.00 0.00 0.00 0.00 0.00 0.00 0.00 0.00 0.00 0.00 0.00 0.00 0.00 0.04 0.04 0.01 0.00 0.00 0.00 0.00 0.00 0.00 0.00 0.00 0.00 0.00 0.00 0.00 0.00 0.00 0.00 0.00 0.00 0.00 0.00 0.00 0.00
0.00 0.00 0.00 0.00 0.00 0.00 0.00 0.00 0.00 0.00 0.00 0.00 0.00 0.00 0.00 0.00 0.00 0.00 0.00 0.05 0.06 0.04 0.00 0.00 0.00 0.00 0.00 0.00 0.00 0.00 0.00 0.00 0.00 0.00 0.00 0.00 0.00 0.00 0.00 0.00 0.00 0.00 0.00
0.00 0.00 0.00 0.00 0.00 0.00 0.00 0.00 0.00 0.00 0.00 0.00 0.00 0.00 0.00 0.00 0.00 0.00 0.03 0.05 0.09 0.07 0.02 0.00 0.00 0.00 0.00 0.00 0.00 0.00 0.00 0.00 0.00 0.00 0.00 0.00 0.00 0.00 0.00 0.00 0.00 0.00 0.00
0.00 0.00 0.00 0.00 0.00 0.00 0.00 0.00 0.00 0.00 0.00 0.00 0.00 0.00 0.00 0.00 0.00 0.00 0.00 0.02 0.00 0.03 0.00 0.00 0.00 0.00 0.00 0.00 0.00 0.00 0.00 0.00 0.00 0.00 0.00 0.00 0.00 0.00 0.00 0.00 0.00 0.00 0.00
0.00 0.00 0.00 0.00 0.00 0.00 0.00 0.00 0.00 0.00 0.00 0.00 0.00 0.00 0.00 0.00 0.00 0.00 0.01 0.01 0.00 0.01 0.01 0.00 0.01 0.02 0.00 0.00 0.00 0.00 0.00 0.00 0.00 0.00 0.00 0.00 0.00 0.00 0.00 0.00 0.00 0.00 0.00
0.00 0.00 0.00 0.00 0.00 0.00 0.00 0.00 0.00 0.00 0.00 0.00 0.00 0.00 0.00 0.00 0.01 0.03 0.05 0.11 0.11 0.05 0.05 0.02 0.02 0.03 0.02 0.00 0.00 0.00 0.00 0.00 0.00 0.00 0.00 0.00 0.00 0.00 0.00 0.00 0.00 0.00 0.00
0.00 0.00 0.00 0.00 0.00 0.00 0.00 0.00 0.00 0.00 0.00 0.00 0.00 0.00 0.00 0.00 0.01 0.04 0.06 0.09 0.13 0.09 0.12 0.10 0.04 0.03 0.02 0.01 0.00 0.00 0.00 0.00 0.00 0.00 0.00 0.00 0.00 0.00 0.00 0.00 0.00 0.00 0.00
0.00 0.00 0.00 0.00 0.00 0.00 0.00 0.00 0.00 0.00 0.00 0.00 0.00 0.00 0.00 0.01 0.03 0.02 0.01 0.04 0.10 0.10 0.14 0.15 0.09 0.05 0.01 0.00 0.00 0.00 0.00 0.00 0.00 0.00 0.00 0.00 0.00 0.00 0.00 0.00 0.00 0.00 0.00
MSLP
1011.77 1012.00 1012.93 1013.49 1013.54 1013.33 1013.21 1013.50 1013.26 1012.99 1013.14 1014.07 1014.22 1014.80 1015.38 1015.91 1016.49 1016.94 1017.47 1017.68 1018.23 1018.38 1018.76 1018.98 1019.32 1019.45 1019.61 1019.82 1019.82 1020.02 1020.10 1020.28 1020.17 1020.40 1020.58 1020.54 1020.70 1020.72 1020.84 1020.72 1020.58 1020.54 1020.39
1011.23 1012.35 1012.27 1013.65 1013.76 1013.70 1013.78 1013.94 1014.36 1013.93 1013.57 1014.10 1014.62 1015.04 1015.63 1016.10 1016.58 1016.99 1017.44 1018.04 1018.48 1018.89 1019.16 1019.33 1019.55 1019.77 1020.13 1020.46 1020.49 1020.52 1020.59 1020.78 1020.76 1020.79 1020.82 1021.03 1021.18 1021.29 1021.33 1021.30 1021.17 1021.04 1020.92
1012.22 1011.46 1011.70 1013.71 1014.02 1013.73 1013.85 1013.99 1014.27 1014.31 1014.03 1014.43 1014.83 1015.23 1015.68 1016.17 1016.73 1017.21 1017.89 1018.40 1018.78 1019.06 1019.44 1019.69 1019.97 1020.24 1020.43 1020.92 1020.68 1020.70 1021.00 1021.14 1021.40 1021.38 1021.47 1021.80 1021.67 1021.69 1021.97 1021.82 1021.68 1021.70 1021.68
1012.94 1012.31 1011.38 1011.45 1012.86 1014.47 1014.25 1014.36 1014.38 1014.40 1014.58 1014.85 1015.17 1015.58 1015.84 1016.41 1016.91 1017.39 1018.12 1018.73 1019.11 1019.41 1019.78 1020.16 1020.47 1020.60 1020.89 1021.01 1020.91 1021.02 1021.45 1021.60 1021.92 1021.97 1022.20 1022.30 1022.29 1022.36 1022.38 1022.39 1022.45 1022.49 1022.58
1012.09 1012.41 1012.46 1012.57 1012.57 1012.84 1014.20 1014.60 1014.90 1014.79 1015.03 1015.17 1015.49 1016.01 1016.17 1016.78 1017.30 1017.66 1018.24 1018.88 1019.27 1019.60 1020.13 1020.62 1020.73 1021.08 1021.21 1021.14 1021.21 1021.42 1021.83 1021.95 1022.31 1022.48 1022.80 1023.00 1022.84 1022.97 1022.94 1023.03 1023.05 1023.15 1023.20
1011.82 1012.29 1012.82 1012.43 1011.98 1013.06 1013.44 1014.26 1014.99 1015.16 1015.50 1015.67 1016.10 1016.36 1016.73 1017.32 1017.73 1017.95 1018.39 1018.84 1019.40 1019.95 1020.38 1020.72 1021.05 1021.29 1021.19 1021.30 1021.82 1022.11 1022.20 1022.41 1022.66 1023.04 1023.17 1023.37 1023.33 1023.38 1023.37 1023.60 1023.75 1023.65 1023.75
1011.71 1012.12 1012.65 1012.65 1012.70 1013.54 1013.75 1014.34 1015.05 1015.64 1015.78 1015.89 1016.66 1016.54 1017.00 1017.80 1018.26 1018.16 1018.54 1019.10 1019.86 1020.23 1020.68 1020.90 1021.29 1021.58 1021.53 1021.77 1022.11 1022.58 1022.71 1022.85 1023.09 1023.52 1023.61 1023.76 1023.86 1023.84 1023.86 1023.98 1024.25 1024.47 1024.54
1010.04 1012.00 1012.30 1012.84 1013.25 1013.50 1013.26 1015.58 1015.83 1016.17 1016.17 1016.43 1016.75 1017.18 1017.14 1018.18 1018.57 1018.79 1018.93 1019.49 1020.11 1020.72 1021.10 1021.33 1021.72 1022.05 1022.02 1022.29 1022.45 1022.94 1023.05 1023.25 1023.49 1023.80 1023.83 1024.04 1024.10 1024.28 1024.36 1024.67 1024.76 1025.00 1025.12
1011.22 1011.79 1012.74 1013.02 1013.78 1014.26 1015.28 1015.89 1016.80 1017.59 1017.18 1017.00 1017.35 1017.55 1017.51 1018.57 1018.80 1019.29 1019.54 1019.90 1020.42 1020.90 1021.29 1021.62 1021.87 1022.25 1022.54 1022.70 1022.64 1022.97 1023.36 1023.68 1023.81 1024.02 1023.98 1024.28 1024.38 1024.48 1024.76 1025.03 1025.31 1025.68 1025.76
1011.84 1012.54 1012.95 1013.43 1014.22 1014.79 1015.52 1016.10 1017.05 1017.65 1017.86 1017.52 1017.99 1017.90 1018.12 1018.92 1019.25 1019.56 1020.01 1020.37 1020.83 1021.13 1021.46 1021.76 1022.03 1022.37 1022.53 1022.90 1022.86 1023.29 1023.63 1024.01 1024.21 1024.33 1024.46 1024.47 1024.61 1024.85 1025.17 1025.37 1025.66 1026.01 1026.17
1010.78 1012.63 1013.37 1014.33 1014.73 1015.52 1015.82 1016.94 1018.07 1017.95 1018.03 1018.02 1018.33 1017.94 1018.52 1019.38 1019.78 1020.07 1020.08 1020.59 1021.23 1021.45 1021.70 1022.02 1022.44 1022.69 1022.79 1023.28 1023.48 1023.64 1023.92 1024.38 1024.45 1024.73 1024.78 1024.74 1024.87 1025.14 1025.48 1025.77 1026.13 1026.43 1026.59
1012.77 1013.38 1013.90 1014.35 1015.24 1015.75 1016.88 1017.14 1017.48 1017.66 1018.28 1018.62 1018.41 1018.42 1018.88 1019.68 1019.95 1020.29 1020.81 1021.06 1021.60 1021.69 1022.09 1022.45 1022.81 1023.07 1023.32 1023.80 1023.94 1024.05 1024.43 1024.63 1024.81 1025.07 1025.01 1025.05 1025.25 1025.48 1025.78 1026.15 1026.46 1026.64 1026.88
1013.34 1013.82 1014.10 1014.31 1015.05 1016.03 1016.55 1017.18 1017.40 1017.62 1018.14 1018.00 1018.32 1018.86 1019.33 1019.72 1020.12 1020.68 1020.89 1021.51 1021.77 1022.22 1022.55 1022.77 1023.23 1023.42 1023.76 1024.16 1024.30 1024.42 1024.64 1024.96 1025.22 1025.27 1025.10 1025.12 1025.30 1025.70 1025.84 1026.19 1026.50 1026.78 1027.16
1014.00 1014.43 1014.67 1015.18 1015.61 1016.05 1016.37 1016.25 1016.98 1017.08 1017.17 1017.80 1018.43 1019.32 1019.62 1019.90 1019.96 1020.46 1021.01 1021.74 1021.66 1022.46 1022.97 1023.15 1023.44 1023.69 1023.94 1024.22 1024.38 1024.62 1024.92 1025.24 1025.43 1025.45 1025.39 1025.43 1025.51 1025.73 1025.93 1026.23 1026.44 1026.82 1027.12
1014.40 1014.82 1015.03 1015.23 1015.71 1016.08 1016.38 1016.43 1016.86 1016.93 1017.26 1017.95 1018.69 1019.24 1019.53 1019.41 1020.14 1020.55 1021.20 1021.36 1021.97 1022.66 1023.11 1023.35 1023.55 1023.85 1024.17 1024.36 1024.54 1024.67 1025.15 1025.40 1025.51 1025.53 1025.61 1025.71 1025.87 1025.72 1025.71 1026.03 1026.36 1026.69 1027.05
1014.96 1015.28 1015.60 1015.71 1015.72 1015.88 1016.57 1016.95 1016.68 1017.19 1017.49 1018.07 1018.65 1019.02 1019.23 1019.53 1019.85 1020.59 1021.16 1021.55 1022.29 1022.43 1022.88 1023.19 1023.44 1023.89 1024.17 1024.35 1024.66 1024.83 1025.16 1025.40 1025.44 1025.50 1025.71 1026.00 1026.05 1025.91 1025.86 1025.89 1026.12 1026.42 1026.74
1015.14 1015.42 1015.81 1015.97 1015.95 1016.17 1016.83 1017.31 1017.16 1017.37 1017.48 1018.05 1018.46 1019.14 1019.66 1019.44 1019.64 1020.53 1021.25 1021.81 1022.26 1022.38 1022.78 1023.09 1023.41 1023.81 1024.16 1024.41 1024.56 1024.93 1025.03 1025.30 1025.32 1025.66 1026.02 1026.09 1026.03 1025.93 1025.89 1026.02 1026.11 1026.21 1026.60
1015.61 1015.74 1016.02 1016.24 1016.32 1016.59 1017.17 1017.33 1017.48 1017.68 1017.86 1017.91 1018.33 1018.92 1018.91 1019.06 1019.58 1020.56 1021.22 1021.81 1022.01 1022.38 1022.65 1022.94 1023.40 1023.87 1024.14 1024.50 1024.90 1025.11 1025.20 1025.15 1025.41 1025.73 1025.90 1025.86 1025.86 1025.99 1026.07 1025.97 1025.90 1026.10 1026.55
1015.74 1015.95 1016.33 1016.65 1016.81 1016.85 1017.29 1017.51 1017.57 1017.75 1017.77 1018.18 1018.09 1018.30 1018.81 1019.01 1019.84 1020.53 1021.06 1021.34 1021.85 1022.27 1022.32 1022.67 1023.35 1023.37 1024.14 1024.54 1024.87 1025.15 1025.29 1025.45 1025.50 1025.37 1025.48 1025.67 1025.80 1025.93 1026.08 1026.04 1026.09 1026.17 1026.44
1016.03 1016.41 1016.72 1016.92 1017.17 1017.49 1017.59 1017.44 1017.68 1017.91 1018.35 1018.37 1018.06 1018.45 1018.56 1019.13 1019.81 1020.16 1020.80 1021.37 1021.60 1022.04 1022.36 1022.56 1022.77 1023.20 1023.81 1024.22 1024.68 1025.00 1025.19 1025.46 1025.44 1025.39 1025.43 1025.50 1025.67 1025.77 1025.95 1026.09 1026.17 1026.24 1026.31
1015.93 1016.18 1016.43 1016.83 1017.28 1017.52 1017.74 1017.95 1018.04 1018.20 1018.33 1018.49 1018.09 1018.13 1018.49 1019.00 1019.53 1019.86 1020.44 1020.95 1021.44 1021.97 1022.08 1022.16 1022.59 1023.14 1023.71 1024.18 1024.81 1025.30 1025.38 1025.34 1025.51 1025.42 1025.44 1025.47 1025.55 1025.62 1025.91 1025.94 1026.01 1026.16 1026.26
1015.72 1016.07 1016.36 1016.74 1017.16 1017.54 1017.77 1017.94 1018.07 1018.28 1018.24 1018.15 1018.29 1018.31 1018.56 1018.93 1019.08 1019.46 1019.93 1020.40 1020.67 1021.36 1021.73 1021.97 1022.24 1023.02 1023.52 1023.94 1024.63 1025.17 1025.43 1025.51 1025.25 1025.34 1025.50 1025.43 1025.38 1025.50 1025.56 1025.77 1025.88 1026.00 1026.18
1015.60 1016.03 1016.59 1017.10 1017.41 1017.64 1017.95 1018.35 1018.33 1018.45 1018.47 1018.32 1018.20 1018.36 1018.51 1018.73 1019.03 1019.33 1019.71 1020.17 1020.66 1020.94 1021.31 1021.61 1021.93 1022.25 1023.05 1023.58 1023.74 1024.14 1025.22 1025.19 1025.27 1025.27 1025.30 1025.32 1025.37 1025.50 1025.28 1025.35 1025.57 1025.78 1025.88
1015.53 1016.16 1016.44 1016.78 1017.02 1017.30 1017.65 1017.85 1017.98 1017.84 1017.90 1017.98 1018.17 1018.23 1018.24 1018.34 1018.50 1018.60 1018.93 1019.44 1020.07 1020.49 1020.70 1020.99 1021.35 1021.82 1022.36 1023.18 1023.81 1023.82 1023.98 1024.24 1025.10 1025.43 1025.21 1025.12 1025.12 1025.19 1025.15 1025.28 1025.36 1025.44 1025.50
1014.99 1015.59 1015.96 1016.20 1016.45 1016.72 1016.99 1017.02 1017.23 1017.53 1017.57 1017.67 1017.79 1017.82 1017.80 1017.78 1017.88 1018.16 1018.45 1018.84 1019.20 1019.34 1019.93 1020.51 1020.89 1021.29 1021.81 1022.51 1022.94 1023.90 1024.51 1024.69 1024.92 1025.46 1025.27 1025.02 1024.95 1024.94 1025.00 1025.12 1025.17 1025.42 1025.20
1014.17 1014.80 1015.32 1015.64 1015.94 1016.32 1016.62 1016.77 1016.97 1017.16 1017.30 1017.42 1017.31 1017.46 1017.45 1017.42 1017.54 1017.56 1017.57 1018.07 1018.74 1019.26 1019.41 1020.19 1020.53 1021.05 1021.62 1021.90 1022.39 1022.87 1023.55 1024.30 1024.86 1025.04 1025.60 1025.36 1025.48 1025.01 1024.65 1024.45 1024.76 1024.99 1024.93
Thickness
5707 5706 5698 5694 5695 5701 5706 5707 5714 5720 5721 5715 5716 5711 5706 5703 5700 5697 5692 5690 5686 5686 5683 5682 5679 5678 5677 5676 5677 5675 5675 5672 5673 5669 5667 5667 5664 5663 5662 5663 5664 5663 5664
5710 5698 5698 5682 5690 5693 5694 5697 5696 5706 5714 5713 5710 5707 5702 5698 5696 5694 5690 5685 5681 5678 5677 5678 5676 5676 5672 5669 5669 5669 5669 5666 5666 5665 5664 5661 5659 5657 5657 5657 5657 5658 5659
5692 5698 5698 5669 5674 5686 5689 5692 5694 5698 5705 5704 5704 5702 5699 5696 5692 5689 5684 5680 5677 5676 5673 5672 5671 5671 5669 5663 5667 5666 5663 5662 5658 5658 5657 5653 5653 5652 5649 5651 5652 5651 5651
5679 5686 5691 5685 5679 5674 5676 5682 5688 5693 5695 5697 5697 5696 5695 5691 5688 5685 5679 5674 5672 5670 5668 5666 5665 5666 5664 5661 5662 5662 5657 5656 5653 5652 5650 5648 5647 5646 5646 5645 5644 5643 5642
5685 5680 5683 5682 5684 5677 5672 5677 5679 5685 5686 5689 5690 5687 5688 5685 5682 5680 5676 5671 5668 5666 5662 5659 5661 5659 5658 5658 5658 5657 5653 5652 5649 5647 5644 5641 5642 5640 5640 5639 5639 5637 5636
5683 5679 5674 5680 5688 5679 5682 5678 5672 5675 5676 5679 5679 5680 5679 5676 5674 5675 5672 5669 5665 5660 5658 5656 5655 5654 5655 5654 5650 5648 5647 5645 5645 5642 5640 5636 5636 5635 5635 5633 5631 5632 5632
5678 5677 5673 5672 5673 5668 5656 5655 5660 5663 5668 5673 5670 5675 5673 5668 5665 5669 5668 5664 5658 5655 5652 5652 5649 5649 5650 5647 5646 5642 5642 5641 5640 5636 5634 5633 5630 5631 5631 5629 5626 5623 5622
5683 5668 5672 5668 5667 5663 5657 5647 5640 5654 5663 5666 5666 5666 5669 5661 5659 5660 5661 5657 5652 5648 5646 5645 5642 5640 5643 5640 5637 5636 5637 5636 5634 5631 5631 5629 5627 5625 5625 5622 5620 5617 5615
5663 5664 5665 5665 5659 5656 5649 5643 5632 5633 5647 5655 5657 5658 5663 5654 5655 5652 5651 5650 5647 5643 5640 5638 5637 5634 5634 5636 5632 5632 5631 5629 5629 5627 5627 5625 5623 5622 5619 5616 5612 5608 5606
5657 5654 5658 5658 5654 5653 5647 5642 5633 5632 5636 5647 5645 5652 5653 5647 5647 5647 5644 5642 5639 5637 5635 5633 5631 5628 5630 5632 5629 5627 5626 5623 5623 5623 5621 5620 5619 5616 5612 5609 5605 5600 5598
5658 5652 5649 5647 5646 5643 5641 5634 5623 5628 5634 5640 5640 5649 5646 5639 5638 5637 5640 5635 5630 5630 5629 5626 5622 5621 5624 5625 5623 5622 5622 5619 5618 5616 5616 5614 5613 5610 5606 5603 5598 5593 5590
5643 5644 5643 5641 5638 5637 5628 5625 5627 5628 5626 5629 5638 5642 5639 5631 5632 5632 5629 5627 5622 5621 5620 5618 5616 5615 5617 5618 5618 5617 5615 5615 5614 5612 5611 5608 5606 5603 5600 5595 5590 5587 5583
5642 5639 5639 5640 5635 5627 5625 5622 5624 5626 5625 5634 5633 5630 5627 5626 5626 5624 5623 5615 5613 5611 5611 5611 5609 5611 5610 5611 5611 5612 5612 5610 5608 5607 5607 5605 5601 5596 5595 5590 5586 5581 5575
5634 5632 5632 5628 5625 5624 5624 5629 5627 5629 5632 5629 5625 5620 5621 5622 5626 5620 5617 5609 5611 5606 5604 5605 5607 5607 5607 5606 5607 5607 5606 5605 5604 5603 5600 5598 5596 5593 5590 5585 5581 5576 5572
5627 5628 5629 5628 5626 5623 5623 5626 5625 5627 5627 5622 5617 5616 5617 5623 5619 5615 5610 5608 5604 5601 5600 5602 5603 5603 5602 5602 5603 5605 5602 5601 5600 5598 5596 5593 5590 5590 5587 5582 5577 5572 5566
5620 5620 5621 5622 5624 5624 5621 5619 5623 5623 5623 5617 5614 5613 5615 5616 5617 5608 5606 5604 5598 5600 5599 5601 5601 5600 5600 5600 5599 5599 5600 5597 5596 5594 5592 5588 5585 5584 5581 5578 5574 5569 5563
5616 5615 5614 5616 5618 5619 5615 5614 5616 5616 5615 5612 5613 5607 5607 5612 5611 5605 5601 5598 5594 5597 5597 5598 5599 5598 5596 5596 5597 5595 5595 5594 5594 5589 5586 5584 5581 5578 5576 5572 5568 5565 5559
5608 5610 5610 5611 5613 5612 5608 5609 5608 5610 5609 5611 5611 5606 5608 5608 5606 5599 5596 5596 5596 5596 5597 5598 5595 5594 5594 5594 5591 5590 5589 5589 5586 5584 5582 5581 5577 5574 5569 5567 5565 5560 5553
5601 5603 5604 5603 5604 5603 5601 5600 5602 5604 5607 5606 5609 5607 5603 5603 5597 5594 5595 5598 5596 5596 5597 5595 5593 5595 5590 5589 5588 5586 5583 5581 5579 5579 5578 5575 5572 5568 5564 5560 5557 5553 5547
5596 5596 5598 5598 5596 5594 5593 5595 5598 5601 5600 5601 5605 5603 5602 5597 5594 5597 5596 5596 5597 5596 5594 5595 5595 5594 5590 5588 5586 5583 5580 5577 5576 5574 5574 5570 5567 5563 5558 5554 5549 5544 5539
5596 5597 5598 5597 5591 5587 5587 5590 5593 5594 5595 5594 5600 5599 5600 5600 5597 5598 5599 5599 5596 5593 5593 5595 5593 5591 5587 5583 5579 5575 5574 5574 5570 5569 5567 5565 5562 5558 5553 5550 5545 5539 5532
5604 5602 5598 5593 5590 5590 5588 5589 5593 5597 5596 5601 5599 5600 5599 5599 5602 5602 5601 5599 5599 5595 5593 5593 5593 5587 5584 5580 5575 5570 5570 5567 5566 5563 5560 5557 5555 5552 5548 5541 5536 5531 5524
5609 5603 5598 5594 5592 5592 5591 5591 5596 5596 5595 5599 5601 5603 5600 5601 5601 5601 5600 5597 5595 5594 5592 5590 5588 5588 5582 5579 5576 5572 5559 5560 5554 5554 5551 5549 5547 5542 5540 5535 5528 5522 5516
5610 5605 5602 5599 5597 5597 5597 5598 5597 5601 5600 5601 5600 5602 5604 5605 5605 5604 5603 5600 5596 5592 5593 5590 5588 5585 5582 5575 5568 5567 5564 5559 5550 5548 5544 5541 5539 5535 5531 5525 5519 5513 5507
5616 5610 5608 5606 5604 5603 5603 5604 5602 5599 5601 5601 5603 5603 5604 5605 5604 5605 5603 5601 5599 5596 5592 5589 5586 5584 5580 5572 5568 5558 5551 5545 5543 5537 5534 5533 5531 5525 5519 5514 5508 5501 5496
5622 5616 5612 5611 5609 5606 5605 5605 5604 5603 5602 5602 5602 5602 5602 5604 5604 5604 5603 5599 5594 5589 5589 5584 5581 5578 5573 5569 5564 5558 5549 5540 5536 5531 5522 5521 5516 5514 5510 5506 5498 5492 5487